GFSFLT1_850_spd_033.txt.gz
Wind_Speed
25 25 28 26 22 23 25 26 25 23 24 27 21 11 11 15 12 5 9 10 8 5 6 9 10 10 12 13 16 17 19 23
23 25 28 29 28 26 26 25 25 25 30 28 19 11 10 10 10 11 9 8 7 7 10 9 8 10 12 16 17 20 22 24
25 27 30 33 32 31 27 24 26 26 33 26 19 13 12 13 11 10 10 9 9 10 10 12 13 15 17 18 19 21 20 21
31 22 27 35 34 30 24 19 19 26 28 20 14 11 16 15 12 12 12 10 6 7 11 13 14 16 18 19 20 21 20 21
34 27 25 28 30 25 20 15 17 20 23 20 22 21 21 16 12 12 11 5 6 8 12 15 17 19 21 22 23 20 21 21
32 32 28 24 22 21 16 16 19 22 23 25 25 20 20 18 18 15 6 4 5 12 14 15 18 20 22 25 20 17 16 21
31 31 31 28 22 17 21 21 21 22 22 24 27 25 26 24 24 16 11 13 12 14 18 20 23 24 22 19 17 16 17 20
29 32 31 28 24 24 26 23 25 28 29 25 27 25 27 26 21 18 13 13 17 17 20 22 23 20 19 17 17 16 18 22
21 27 24 20 24 25 25 29 30 32 31 28 27 24 23 22 21 16 13 14 17 19 22 21 18 21 18 18 16 16 16 17
22 22 20 20 25 25 27 28 30 29 30 30 30 27 24 21 18 16 15 18 17 20 18 17 20 19 19 16 15 16 19 19
27 23 22 23 27 28 30 26 27 28 28 29 28 24 21 17 17 17 16 15 13 15 17 18 18 18 16 15 17 18 23 26
29 27 25 26 26 25 24 25 26 27 27 27 25 20 17 17 17 13 7 10 19 18 18 18 18 20 15 18 21 24 26 25
33 31 31 31 30 27 25 29 26 28 29 29 25 19 17 15 11 8 15 13 16 18 18 19 19 18 16 21 23 25 25 23
35 35 36 36 33 32 31 30 31 28 31 30 23 18 15 11 13 17 13 14 16 16 17 18 20 23 17 22 23 22 25 19
35 38 39 40 40 37 33 33 32 32 31 27 21 16 11 16 14 12 10 19 19 17 20 24 25 19 20 23 26 24 22 19
25 34 39 37 37 34 32 33 35 37 33 28 20 14 15 9 13 16 20 18 18 22 23 24 22 21 23 25 27 23 20 22
10 6 24 29 33 33 33 34 36 38 35 25 16 17 15 15 21 20 14 19 16 20 20 22 22 24 25 26 25 24 20 19
8 8 6 13 19 22 31 32 34 32 24 17 16 16 15 9 11 11 14 16 21 19 22 23 25 25 23 24 24 21 20 20
12 10 10 11 10 20 21 25 29 23 13 13 10 12 11 7 5 9 16 18 19 23 23 24 25 26 23 24 22 21 21 20

GFSFLT1_850_spd_036.txt.gz
Wind_Speed
35 35 32 27 32 32 34 34 31 28 29 27 25 21 19 14 9 9 9 14 14 13 12 10 8 9 12 14 16 16 17 18
37 36 35 36 35 32 35 35 33 31 32 31 27 23 17 11 9 12 14 13 12 12 9 7 10 12 14 15 15 16 18 17
40 40 40 38 35 32 29 32 33 32 29 28 26 23 16 11 11 13 13 12 11 8 8 11 13 14 16 15 16 17 18 17
42 45 44 41 40 34 28 29 31 30 28 28 27 23 17 18 16 16 15 12 10 9 12 13 14 17 16 16 18 20 20 18
41 42 44 44 40 34 30 27 28 29 28 32 30 25 25 22 19 16 16 13 13 15 14 14 17 16 16 17 20 22 19 19
44 43 43 43 39 35 32 28 23 26 29 33 31 26 22 21 21 19 18 19 19 17 14 14 16 17 18 20 22 20 17 17
42 39 36 36 36 32 32 30 24 26 27 34 32 27 23 24 26 24 22 21 18 15 14 15 17 18 21 22 20 18 17 15
38 36 33 33 34 28 29 24 26 27 29 31 31 30 28 28 29 28 25 22 19 17 18 18 21 20 20 19 17 17 16 16
39 37 35 33 32 27 23 26 26 28 30 30 30 32 33 30 30 27 22 19 19 19 17 19 20 17 18 17 18 16 15 16
36 34 36 34 28 22 24 27 26 28 29 27 29 30 28 26 24 20 18 17 15 17 16 15 19 22 18 18 20 18 20 20
31 31 31 28 23 22 26 25 28 28 30 28 26 27 26 24 23 19 16 16 16 14 14 18 18 20 22 21 23 20 21 24
27 26 27 25 22 22 24 27 29 30 33 32 30 27 24 22 19 18 17 16 14 19 15 14 19 23 22 23 25 22 24 25
30 31 31 30 28 27 28 29 33 36 36 34 32 29 26 25 21 19 21 20 21 12 13 17 20 21 22 25 25 23 25 28
35 35 36 37 36 33 35 36 36 37 36 34 33 29 28 23 24 27 25 20 13 10 15 17 18 22 23 25 21 24 26 26
38 39 39 39 38 37 39 39 35 34 35 37 36 36 29 27 28 25 15 11 10 9 14 16 22 21 24 22 22 25 26 24
30 33 38 41 41 41 41 38 34 35 35 36 33 25 22 26 22 14 14 12 8 8 14 17 22 20 26 24 24 25 26 25
9 6 20 36 38 37 39 38 38 38 38 36 25 18 18 14 12 12 12 14 14 7 17 22 21 25 23 26 24 25 25 25
13 10 7 4 14 26 31 35 39 38 35 29 23 23 22 22 16 13 10 1 7 16 20 20 25 24 24 25 23 24 24 22
6 7 8 4 6 19 29 31 32 29 24 19 18 19 15 13 11 5 9 13 13 10 20 25 23 21 21 23 23 23 23 24

GFSFLT1_850_spd_039.txt.gz
Wind_Speed
29 29 29 29 29 27 27 26 26 25 26 25 25 25 23 21 19 14 12 14 16 17 15 12 9 9 10 12 15 14 13 13
29 29 28 28 30 30 30 29 28 29 28 27 28 28 25 22 17 15 11 14 18 16 13 11 10 9 12 13 12 13 15 17
31 31 31 31 29 29 31 29 30 32 30 30 30 28 25 19 16 13 13 16 17 14 12 11 10 11 13 12 15 18 20 20
36 36 37 34 33 29 28 30 34 34 32 31 30 27 24 21 17 16 16 17 15 14 12 10 11 12 13 18 20 20 21 21
41 42 41 42 39 35 33 33 36 36 33 33 33 32 31 28 21 18 18 16 14 13 13 13 12 14 16 20 25 23 23 18
47 46 42 41 41 40 37 38 39 36 35 35 34 33 30 22 20 19 18 17 18 17 16 14 13 11 16 18 21 22 19 17
46 46 44 44 43 43 41 39 38 35 34 35 36 33 31 27 22 22 21 20 20 18 16 13 11 13 17 19 21 20 18 16
44 45 46 45 43 43 42 41 39 35 32 33 33 34 31 29 24 24 25 24 23 23 18 15 16 17 18 16 17 19 18 15
44 46 46 43 38 38 42 42 38 36 33 34 31 34 30 28 26 26 28 27 26 22 20 17 19 19 14 19 23 20 18 17
43 41 41 40 36 35 34 33 36 31 31 31 29 31 31 31 28 27 28 27 24 23 18 23 25 14 16 17 16 18 18 17
32 36 34 33 31 24 22 26 25 28 29 30 31 32 31 31 30 29 29 26 23 23 29 27 23 13 15 14 17 18 19 20
19 24 29 30 29 30 25 25 25 27 29 31 31 31 32 30 29 30 32 31 30 31 26 19 13 13 13 16 19 20 21 19
18 22 26 27 30 32 31 27 25 29 32 32 31 30 29 28 28 30 30 29 24 20 17 16 11 12 16 19 19 20 20 19
26 27 27 26 30 34 34 32 31 32 30 31 33 32 29 28 29 27 23 24 22 19 16 13 12 13 16 18 20 20 20 20
28 29 30 31 33 35 33 31 37 28 27 31 32 31 31 30 26 25 27 23 20 12 9 8 8 12 17 20 23 22 21 23
23 28 30 33 34 35 35 33 31 30 31 34 33 33 31 28 27 27 23 23 17 13 8 4 11 21 22 21 21 19 23 21
5 6 17 26 34 37 35 33 29 34 33 34 34 31 29 27 26 22 18 17 14 10 15 19 17 19 21 19 19 21 21 21
7 6 4 0 6 15 24 30 34 31 33 33 31 28 26 26 22 20 19 11 13 20 19 17 21 20 23 24 21 18 21 22
6 5 6 6 5 7 14 21 24 25 27 24 24 27 27 25 22 15 7 19 15 13 16 18 21 23 20 18 16 17 20 22

GFSFLT1_850_spd_042.txt.gz
Wind_Speed
24 27 27 25 25 24 22 21 20 20 21 23 23 23 20 19 14 16 15 15 16 19 18 15 13 11 9 9 11 13 12 12
23 26 29 29 26 25 26 24 24 24 26 29 29 28 22 21 20 21 17 15 17 17 15 14 13 11 9 11 11 10 11 12
25 27 28 31 33 31 28 27 28 27 28 28 28 25 25 22 21 21 19 15 16 15 14 14 13 11 11 8 8 9 11 14
32 32 32 32 33 32 32 30 30 29 29 29 28 28 27 26 26 24 19 17 17 16 16 16 14 12 9 7 7 9 14 19
32 34 35 35 34 32 30 30 30 30 29 29 31 30 30 31 28 23 20 20 19 19 18 16 14 13 10 7 9 14 19 22
38 37 35 34 34 32 31 30 30 30 31 31 32 32 32 29 27 25 22 21 21 21 19 17 16 14 11 10 14 20 25 18
39 39 38 36 35 34 33 32 31 31 31 33 34 34 34 31 28 26 25 23 23 22 20 19 19 18 16 17 28 23 17 17
40 39 41 41 39 38 37 37 37 36 35 33 35 37 36 32 29 29 26 26 25 24 24 24 23 19 15 27 26 15 18 18
42 42 41 41 41 40 39 39 38 38 39 37 37 37 37 33 30 31 27 25 25 26 28 25 22 14 35 26 21 12 13 13
37 41 40 39 40 39 37 36 36 38 38 38 36 36 35 37 34 31 27 27 28 29 28 33 26 33 22 16 10 11 12 12
27 32 37 37 37 36 30 32 33 34 35 39 38 37 35 34 28 26 26 29 30 34 33 28 27 19 14 8 6 11 13 15
16 18 25 28 29 31 33 30 28 30 29 31 35 33 30 26 26 28 27 26 31 33 27 23 13 10 9 11 9 12 15 18
15 16 18 18 22 26 28 28 24 21 22 25 29 27 27 29 29 26 26 28 31 23 21 15 13 16 22 9 15 16 18 18
14 17 21 22 24 28 26 20 20 23 21 23 26 30 30 26 23 24 25 26 26 26 22 19 21 21 8 11 18 19 21 22
16 18 19 19 22 25 22 21 24 25 24 26 29 28 26 25 23 26 26 27 27 20 20 19 8 11 12 15 18 22 25 21
13 14 15 15 18 21 22 25 26 27 27 27 27 25 27 27 26 25 25 25 22 25 21 17 19 20 17 23 22 21 22 22
9 6 5 5 8 12 17 20 23 24 24 25 23 26 27 26 25 28 27 25 26 20 22 18 19 21 17 16 21 24 24 23
14 13 12 9 8 7 7 10 14 17 19 20 21 24 23 23 23 22 19 15 10 15 18 19 17 13 15 21 25 25 23 22
10 8 8 6 4 5 7 9 11 11 12 14 16 19 21 22 18 14 10 10 15 19 15 11 13 15 20 20 20 21 21 22

GFSFLT1_850_spd_045.txt.gz
Wind_Speed
24 24 27 29 32 31 25 22 21 21 20 20 22 23 23 20 18 16 15 14 13 13 16 15 15 16 14 12 10 9 8 10
24 24 24 27 28 29 28 25 22 23 24 24 24 25 24 21 19 16 15 16 15 16 18 18 17 17 15 13 10 7 8 10
23 26 28 29 27 29 29 27 25 25 25 24 25 24 24 21 21 20 19 19 18 18 18 18 18 18 17 13 9 9 9 10
26 27 30 31 33 31 28 28 27 26 23 24 26 25 24 24 25 24 23 21 20 18 18 19 19 19 15 13 12 9 9 9
30 30 31 33 33 34 33 32 29 28 27 27 28 28 30 29 28 27 25 22 22 20 20 21 21 19 17 17 13 10 8 7
34 34 33 31 31 31 32 32 31 31 31 31 31 32 32 29 27 27 24 25 24 22 23 23 23 22 21 18 14 11 16 18
35 34 33 32 33 32 32 32 31 31 32 32 32 33 31 29 29 27 27 27 27 26 26 26 25 24 23 19 13 21 24 14
41 38 36 35 36 35 34 33 32 32 32 32 31 31 30 30 30 29 28 30 31 29 29 29 29 27 22 14 20 26 15 14
43 43 40 36 34 35 34 34 33 33 27 29 31 30 29 28 31 31 29 30 33 30 32 32 32 27 23 20 20 11 10 9
29 35 40 38 34 33 34 33 30 32 31 27 30 32 31 31 32 32 32 31 32 31 34 34 32 29 19 21 10 9 6 7
15 19 23 29 32 31 30 28 27 27 27 29 29 29 30 31 32 34 35 31 29 32 37 36 32 25 19 12 10 9 9 9
7 9 12 16 21 23 23 22 24 24 21 23 25 29 31 32 34 32 29 31 33 34 38 37 32 23 16 16 16 16 11 14
6 7 8 9 10 11 13 16 19 21 20 18 18 20 23 24 25 27 28 27 29 32 38 34 27 22 19 21 21 18 16 15
13 13 12 13 14 16 17 16 15 16 19 19 20 20 22 25 27 27 25 22 26 31 31 28 22 22 19 24 27 15 17 19
11 11 11 11 13 14 16 15 18 19 21 20 22 23 26 25 23 18 17 19 23 27 28 28 25 21 23 28 20 19 22 23
5 6 6 7 7 7 8 10 11 13 14 17 19 19 17 16 14 15 16 19 22 26 23 22 18 23 26 24 24 20 21 22
17 15 11 8 5 2 1 3 5 7 8 10 11 11 11 12 13 16 16 18 19 15 13 15 24 23 21 19 16 19 21 24
20 18 16 13 10 7 4 3 3 5 5 5 5 7 9 12 13 14 15 16 16 11 15 20 20 19 15 15 17 21 25 27
16 13 11 9 8 6 6 6 6 6 4 2 1 4 8 10 13 15 13 7 10 15 18 16 15 12 13 17 19 21 24 25

GFSFLT1_850_spd_048.txt.gz
Wind_Speed
20 21 24 25 26 26 26 25 21 21 21 21 19 21 20 19 20 20 19 18 17 16 15 13 14 16 17 15 14 11 5 4
21 23 25 26 26 27 28 25 21 21 19 19 19 20 20 21 21 22 20 18 18 17 15 16 18 17 17 17 15 10 7 6
23 25 26 27 28 29 28 27 23 22 20 19 18 19 20 20 20 23 21 20 18 18 19 18 17 17 20 19 16 11 8 9
23 25 28 28 30 30 29 28 24 23 21 19 18 17 17 21 22 25 25 21 20 22 22 20 20 22 22 21 18 14 9 9
24 26 28 29 29 28 28 27 26 25 23 21 23 22 21 20 20 22 25 26 25 24 24 23 23 24 23 23 20 16 13 7
28 28 28 28 28 29 29 28 27 26 25 25 22 22 19 18 21 21 26 27 27 27 27 26 25 26 27 26 24 19 16 11
27 27 26 26 27 28 28 29 28 27 26 27 26 25 24 22 22 22 26 30 29 28 28 27 27 28 29 28 25 23 19 20
29 28 30 29 29 29 29 30 30 29 30 30 30 31 28 29 28 27 29 29 29 28 30 31 31 31 31 30 27 24 23 20
32 29 29 28 28 27 29 31 32 30 31 30 31 31 32 31 27 30 32 29 28 27 30 33 32 33 33 30 28 25 22 15
22 27 29 28 25 27 28 27 26 27 32 32 29 28 26 27 27 32 29 27 28 29 28 32 33 34 34 32 28 25 15 14
11 14 19 23 23 22 22 22 23 23 25 25 25 25 23 23 25 26 28 29 30 30 26 28 35 35 34 30 23 18 18 17
6 8 9 12 15 17 18 17 17 18 18 17 17 17 18 19 23 24 27 28 30 25 29 34 35 34 34 26 24 21 15 19
4 7 9 10 11 12 12 13 14 15 14 14 13 13 16 17 19 21 22 25 25 28 31 32 37 36 32 26 22 21 23 28
5 7 8 9 10 11 11 12 11 10 11 13 15 17 18 19 20 22 21 20 21 22 27 29 32 29 27 25 25 20 25 19
8 8 8 8 8 8 8 9 10 11 11 14 16 17 16 17 17 15 15 15 16 18 22 22 22 26 25 18 18 27 27 21
10 10 9 8 7 7 7 7 9 9 10 11 10 9 8 9 8 8 9 12 14 15 14 15 19 21 19 23 27 29 24 25
10 9 9 9 8 8 6 5 5 4 3 3 2 2 1 2 3 4 5 7 7 8 12 12 15 19 23 27 26 22 20 19
15 15 15 15 14 12 10 7 6 4 3 2 3 2 2 2 3 4 6 7 8 7 9 13 17 22 22 20 16 17 19 20
16 17 17 16 14 12 11 10 9 9 8 8 7 5 4 4 3 4 4 3 5 10 12 16 15 14 12 12 16 21 21 21

GFSFLT1_850_spd_051.txt.gz
Wind_Speed
21 22 24 24 24 24 28 29 31 26 22 20 18 19 20 19 19 19 17 18 19 18 14 16 15 13 12 11 11 10 9 8
21 24 24 25 24 25 25 25 22 21 18 18 18 19 19 18 19 17 19 17 19 19 15 17 15 13 13 14 13 13 9 10
22 24 25 26 26 26 26 25 24 24 21 18 17 17 18 18 18 18 20 20 18 19 17 16 16 14 16 17 16 11 11 11
25 26 26 28 27 27 26 26 24 23 19 18 17 17 18 20 21 20 20 19 19 20 20 18 19 18 20 19 19 17 14 12
26 27 29 29 29 28 27 27 26 24 23 21 21 20 21 20 21 21 22 25 26 24 23 25 24 23 25 23 19 18 18 15
28 30 31 31 30 32 31 29 29 27 26 26 23 24 21 19 20 21 21 21 25 28 24 27 27 26 26 26 20 22 18 15
28 28 27 29 30 31 31 30 31 30 30 28 28 25 23 20 22 23 22 22 21 25 29 31 28 27 27 28 26 25 19 20
29 30 31 30 31 32 33 31 33 32 30 29 28 27 25 24 23 24 22 25 26 26 29 31 27 28 29 27 26 22 27 24
31 31 31 31 32 32 32 31 32 29 26 26 27 29 29 28 29 29 26 27 29 28 25 26 26 29 30 31 29 30 28 25
27 33 32 31 31 31 32 30 29 28 34 33 30 26 26 30 30 29 27 31 32 28 28 28 29 31 32 36 35 33 28 26
14 22 30 28 28 28 28 27 27 24 26 31 31 25 30 28 26 25 30 31 30 31 30 28 31 30 32 36 35 30 30 27
8 12 17 22 25 26 26 25 24 23 23 22 23 25 20 19 17 21 25 23 24 28 29 29 32 32 34 35 30 31 28 23
6 9 10 15 20 21 22 21 21 20 18 18 17 17 17 17 19 22 25 19 19 22 24 25 27 32 37 27 29 27 21 17
8 10 11 13 15 17 18 17 16 16 16 15 15 20 18 20 20 21 19 19 20 21 22 22 26 29 26 22 23 20 19 17
11 12 12 13 14 15 15 15 14 15 13 12 18 19 17 14 13 13 13 13 15 15 15 16 16 16 16 20 20 20 23 22
14 14 14 15 15 15 14 14 16 16 19 18 14 10 7 7 7 8 9 8 8 8 8 8 8 9 11 14 18 19 20 23
15 16 15 15 15 15 14 13 13 12 11 9 8 8 9 8 7 7 6 4 3 1 1 3 2 7 10 14 16 20 23 22
13 15 16 15 16 16 15 15 15 15 14 13 11 9 7 7 7 8 8 7 5 3 2 2 6 10 14 18 20 19 14 15
18 18 18 18 18 18 18 17 16 15 14 13 11 10 11 11 10 8 6 5 4 2 4 8 11 10 10 10 12 15 17 18

GFSFLT1_850_spd_054.txt.gz
Wind_Speed
19 19 21 24 23 24 24 30 28 30 36 34 33 35 29 22 21 20 20 21 24 21 21 18 19 19 15 16 16 13 13 13
24 24 23 28 27 26 25 29 35 31 29 34 24 23 23 24 25 24 26 24 23 22 20 19 21 18 16 18 18 18 18 17
27 29 29 27 24 24 29 30 33 30 29 27 27 28 29 27 25 24 27 25 23 23 20 20 21 20 21 23 19 20 19 20
31 32 30 33 31 27 25 26 26 26 25 20 19 22 19 22 25 28 19 23 22 22 20 23 25 21 25 23 21 19 20 21
32 34 36 34 38 34 30 29 28 27 27 29 28 26 28 28 26 27 26 30 28 26 24 27 27 26 26 24 23 21 22 22
37 38 38 39 38 38 33 34 34 32 28 27 29 28 25 24 25 27 26 30 30 28 29 27 29 32 29 28 28 26 24 25
37 37 37 38 39 39 38 37 37 34 31 27 28 29 28 26 26 28 30 31 29 25 29 30 34 33 31 28 28 28 26 27
33 38 40 40 40 40 40 40 39 36 35 31 29 28 25 28 28 29 32 34 31 30 27 29 33 34 31 26 28 31 32 32
33 34 41 42 42 42 42 42 40 36 35 33 30 33 31 29 31 29 28 30 34 31 31 27 28 27 26 26 26 29 34 32
36 36 37 42 44 42 43 40 38 37 40 39 33 25 34 32 34 27 30 26 29 31 33 30 23 24 27 27 30 33 35 33
16 26 36 34 41 43 42 39 36 37 40 43 45 30 34 30 25 27 30 27 32 31 32 30 27 25 27 28 31 33 35 34
8 12 15 36 34 38 38 38 34 33 38 36 41 39 27 30 28 31 28 31 31 22 21 24 25 24 26 31 32 33 34 29
6 8 10 12 27 31 37 36 33 31 30 31 27 25 28 29 29 26 25 23 22 21 16 17 20 24 27 29 30 29 25 24
9 8 9 11 17 16 23 26 22 23 24 19 23 25 26 26 22 19 19 20 21 20 18 19 20 23 24 24 23 22 21 18
14 12 11 12 13 16 17 16 17 20 22 20 22 23 21 21 19 19 19 20 19 20 20 20 18 16 15 17 18 15 14 17
14 17 16 16 17 17 18 22 25 25 26 27 25 22 19 17 16 17 17 17 16 14 13 11 8 6 6 6 6 9 14 16
15 17 22 20 19 21 26 25 24 22 20 16 13 12 13 14 13 12 12 11 10 8 7 6 5 3 2 4 8 12 14 18
10 14 19 25 23 23 20 19 18 19 19 14 14 15 14 11 11 8 9 8 8 6 5 4 2 1 4 8 12 14 14 11
14 14 19 20 22 21 23 22 23 19 19 19 18 15 14 14 14 13 12 10 8 7 4 3 5 4 1 3 6 8 10 12

GFSFLT1_850_spd_057.txt.gz
Wind_Speed
14 19 20 24 27 24 27 31 32 38 34 34 42 37 31 35 38 31 23 23 20 20 20 21 23 23 21 21 20 18 16 16
16 20 23 24 21 22 29 33 30 35 32 38 44 35 40 37 32 24 24 23 23 27 22 25 26 24 23 22 19 18 19 19
22 21 27 28 27 26 32 33 32 33 34 35 36 42 39 34 26 26 26 25 24 24 27 27 27 25 24 24 22 21 20 24
30 28 29 30 29 31 35 34 34 36 33 31 30 26 31 30 30 30 29 32 28 26 27 27 29 27 25 27 25 22 22 26
34 33 33 34 31 30 32 33 35 33 31 32 29 31 33 32 31 33 32 28 29 30 28 27 30 29 27 29 28 27 25 27
40 37 36 36 35 35 32 33 35 34 32 32 32 31 29 25 26 26 30 30 32 32 30 28 30 32 30 29 31 32 30 26
43 37 34 36 37 37 37 35 35 34 34 34 35 35 33 30 29 30 30 30 32 33 31 30 32 33 34 34 32 32 31 29
46 44 41 39 42 42 41 39 38 38 37 36 35 37 36 36 33 31 31 33 33 37 36 33 32 35 34 34 34 33 32 30
50 49 46 43 43 47 47 47 43 44 43 40 36 33 37 35 39 32 30 32 35 35 36 36 29 27 29 33 32 31 30 31
50 50 47 46 46 47 50 50 50 49 49 45 43 42 39 43 39 30 32 27 27 35 37 38 29 25 24 25 28 29 29 32
41 49 49 48 47 45 47 49 49 48 50 48 47 47 45 42 36 36 31 28 32 33 32 28 25 24 25 24 27 27 28 34
9 26 42 49 50 50 49 50 51 49 47 46 48 47 45 39 33 32 25 29 28 30 26 20 20 25 26 25 27 27 31 32
12 10 7 17 53 54 52 51 52 49 46 49 47 44 41 41 30 30 32 32 29 27 19 17 16 19 21 21 23 26 26 25
13 10 10 8 21 43 46 47 40 35 31 31 34 38 31 38 41 36 31 26 23 21 19 19 17 16 18 19 20 19 17 15
18 13 9 9 9 16 32 32 31 27 22 23 20 23 25 24 28 28 24 21 20 20 20 20 18 18 17 15 11 11 12 11
23 20 16 13 11 13 17 28 29 27 26 23 23 27 27 23 21 22 22 21 19 19 18 18 18 16 12 10 10 10 8 8
28 27 26 22 20 20 20 21 21 20 22 23 25 28 27 21 20 20 19 18 18 18 17 14 12 10 10 11 10 7 7 9
16 29 30 29 26 24 26 21 20 21 22 23 24 25 23 20 19 20 18 18 18 16 14 13 12 11 9 7 6 7 9 9
21 22 32 33 31 27 25 24 24 20 21 23 23 22 21 21 20 19 19 17 15 14 12 9 7 7 7 7 7 7 7 8

GFSFLT1_850_spd_063.txt.gz
Wind_Speed
8 10 11 13 13 13 17 20 26 27 31 40 35 37 39 37 36 34 32 31 30 27 24 20 18 17 16 16 15 14 15 14
11 10 13 16 15 16 17 20 24 26 32 39 36 38 42 35 34 35 31 32 27 24 22 20 19 19 18 18 18 20 20 19
19 14 16 19 19 19 20 22 25 27 30 37 42 40 42 35 36 37 39 32 29 24 23 22 19 19 21 23 22 23 23 24
24 21 21 21 22 23 23 25 24 25 32 38 37 36 38 38 38 35 40 39 27 26 24 24 23 22 23 24 25 28 28 28
28 25 25 25 21 22 25 26 26 28 31 36 40 41 40 40 41 38 40 39 31 24 26 27 25 24 25 28 29 30 29 31
36 32 27 25 23 23 26 28 29 31 34 35 36 44 44 41 44 43 48 49 38 30 28 30 29 29 29 29 32 33 34 34
39 34 30 30 28 26 28 33 34 35 37 39 41 37 43 47 45 43 45 48 44 39 40 35 32 32 32 32 33 34 36 36
43 41 38 36 35 33 32 36 38 39 39 41 43 41 43 46 47 48 49 46 44 45 44 38 36 34 33 33 35 37 36 34
45 46 44 42 40 40 38 39 40 42 42 42 43 43 46 46 44 46 46 45 43 42 38 38 38 37 35 39 38 35 21 31
46 48 48 47 44 46 46 45 44 44 45 45 45 45 46 48 47 47 48 45 42 38 35 34 34 36 38 37 30 28 27 32
45 45 48 51 50 49 49 49 49 48 48 49 48 47 46 46 46 46 46 43 41 41 37 35 35 37 38 37 36 39 37 32
46 47 47 49 50 52 52 53 52 52 53 51 50 50 48 46 46 46 44 42 41 36 36 33 33 35 35 37 38 33 30 26
43 48 46 47 50 50 54 56 56 56 53 52 48 45 42 40 45 44 45 45 44 35 39 35 37 39 38 35 27 23 23 26
34 37 40 44 44 47 50 51 54 54 51 50 47 44 37 35 45 42 42 41 44 42 38 51 31 29 31 23 20 22 24 24
24 33 34 36 36 38 41 44 47 47 49 51 50 49 43 44 38 38 49 47 41 37 34 37 33 31 22 22 20 22 24 24
25 30 30 31 30 29 31 35 40 43 44 46 49 46 46 50 47 46 43 43 42 37 35 36 31 28 24 24 24 24 25 22
31 34 32 31 28 24 21 24 29 36 39 43 44 46 46 49 47 43 45 44 42 38 33 31 33 27 24 25 27 26 24 22
30 34 34 35 32 26 24 22 22 27 31 34 40 44 44 44 42 41 40 42 41 31 29 31 26 25 26 26 24 23 21 21
37 33 32 38 35 32 30 27 27 30 33 34 37 40 42 42 40 38 34 33 30 30 30 25 24 23 24 24 23 22 21 19

GFSFLT1_850_spd_066.txt.gz
Wind_Speed
9 9 9 10 11 13 12 16 21 27 22 31 35 36 35 39 38 39 37 34 31 31 21 13 19 17 15 14 12 9 9 9
12 11 11 10 11 10 14 16 21 29 30 36 36 36 37 34 37 39 35 36 30 24 24 26 27 20 18 15 13 14 14 14
16 16 15 14 13 17 15 15 18 25 32 30 36 37 34 37 37 38 36 33 34 29 29 27 25 23 20 18 17 18 18 19
21 20 17 15 15 15 20 20 21 20 24 33 34 33 33 38 38 36 32 34 33 32 28 26 26 20 18 18 19 20 21 21
25 22 21 18 17 16 19 22 23 24 27 33 38 38 42 40 42 35 35 36 32 32 31 25 23 20 20 20 21 23 22 23
30 28 23 18 18 18 17 21 25 26 28 32 39 40 41 44 40 40 44 39 40 37 31 28 24 23 24 26 25 26 26 28
29 30 26 23 21 22 21 22 25 27 29 32 38 41 40 48 44 43 44 41 46 44 41 34 26 24 26 29 29 29 31 31
31 32 33 30 27 27 25 25 27 30 32 35 38 41 43 43 47 48 47 45 44 48 46 42 37 32 30 32 32 31 34 36
33 31 35 34 31 30 30 30 30 32 34 36 38 39 40 41 44 46 47 43 45 41 48 49 45 38 36 39 37 37 37 37
34 34 33 38 36 35 35 35 33 34 35 36 38 39 40 41 39 40 45 46 44 42 44 47 43 38 39 35 34 35 34 30
26 31 34 36 40 38 36 36 36 35 36 38 39 39 39 39 39 38 39 39 41 42 44 43 41 42 39 36 35 34 31 28
23 24 30 34 38 42 41 40 40 39 39 39 40 40 38 37 38 39 40 40 41 41 41 43 43 41 39 38 34 32 36 38
23 25 28 32 36 40 43 44 45 45 44 39 41 42 41 39 36 35 38 40 40 42 43 41 41 35 35 28 30 32 34 35
22 24 27 28 33 37 39 41 44 45 47 47 45 46 46 45 40 34 43 44 45 46 50 44 43 37 38 40 33 31 31 24
12 19 26 27 28 29 33 37 38 38 41 45 49 51 49 46 43 45 35 41 37 43 41 36 37 38 38 34 33 28 23 22
16 19 22 26 28 28 28 30 33 34 35 38 43 47 49 48 47 48 44 40 37 43 43 42 40 38 31 31 32 26 25 25
23 22 24 29 29 29 29 29 27 30 32 31 35 37 40 42 45 49 52 49 45 43 45 43 35 35 39 35 27 29 27 27
34 27 24 27 34 33 33 30 31 32 32 33 34 33 34 36 40 44 46 48 50 47 43 40 35 29 29 29 28 27 27 26
32 35 33 28 28 36 35 32 32 31 32 32 31 31 33 35 36 40 40 42 41 41 37 31 29 29 31 30 27 26 23 22

GFSFLT1_850_spd_069.txt.gz
Wind_Speed
11 9 9 10 14 15 15 20 26 21 22 26 30 32 37 41 35 42 40 39 38 35 33 31 26 24 21 17 13 13 11 9
13 11 11 11 12 16 18 20 24 20 25 29 29 35 34 37 41 41 39 39 38 35 32 28 27 23 16 12 15 13 12 13
19 15 12 14 13 15 21 21 21 24 29 25 32 39 40 36 38 38 40 40 39 34 32 30 21 18 16 22 18 15 14 15
23 20 15 14 17 17 19 24 22 24 24 27 34 35 38 38 36 35 43 44 38 32 32 26 22 18 26 24 20 17 14 15
25 24 20 16 16 18 18 22 23 23 25 29 31 35 36 35 38 36 41 42 36 34 34 25 28 28 27 22 22 18 15 18
30 30 23 17 16 19 20 21 26 27 26 26 29 34 33 35 38 36 38 31 40 37 37 34 29 31 25 26 25 20 18 19
28 27 26 23 20 19 20 22 24 26 28 30 32 35 34 35 38 38 36 40 40 37 39 37 33 34 31 28 25 22 21 23
27 31 32 30 26 23 24 24 26 27 29 30 33 37 38 41 41 42 44 42 41 42 40 38 38 35 32 28 23 21 23 27
24 31 33 32 29 28 27 27 28 30 30 31 32 34 41 42 45 44 47 46 47 45 45 44 44 43 40 36 33 31 33 33
21 26 34 32 31 31 30 30 30 31 32 32 34 36 39 43 47 45 51 49 48 49 46 43 45 45 45 46 44 40 37 35
17 23 30 34 32 31 31 31 31 29 32 34 34 35 37 40 42 46 51 51 51 51 51 48 49 46 42 44 44 43 40 39
15 18 23 30 31 32 34 34 34 34 33 35 36 37 38 39 42 43 46 47 48 50 51 49 45 42 41 41 43 41 43 43
13 14 17 24 30 32 34 37 39 38 37 36 36 39 39 40 40 39 38 39 38 37 38 39 40 39 40 42 43 41 35 38
11 13 18 21 24 28 32 34 36 38 40 41 40 38 43 44 44 43 42 43 43 40 37 36 37 40 41 40 39 43 33 36
9 9 14 20 22 23 25 26 29 31 33 37 41 43 46 42 42 43 42 41 41 39 40 36 40 47 40 39 37 36 37 34
18 16 15 16 19 22 24 23 26 27 28 30 33 33 38 44 47 43 40 44 44 42 34 36 39 37 33 29 26 31 31 32
27 25 23 21 24 25 25 27 26 27 26 26 28 28 29 32 35 41 44 44 44 43 43 39 35 36 32 32 32 34 31 31
23 25 29 28 28 28 29 28 28 29 29 29 28 28 28 28 28 30 33 39 42 44 43 43 42 39 34 36 38 30 30 31
27 29 32 28 26 29 29 33 32 31 34 31 30 30 28 27 27 29 30 32 35 35 35 37 40 39 39 35 30 28 29 32

GFSFLT1_850_spd_072.txt.gz
Wind_Speed
14 12 11 11 12 16 19 15 18 28 24 28 31 33 43 42 36 38 39 36 35 36 31 32 31 26 25 25 23 17 16 16
15 14 12 12 13 17 19 18 20 24 28 28 34 37 43 44 43 39 42 37 39 37 29 33 32 29 26 23 21 19 17 16
19 17 15 14 15 17 19 20 22 19 26 24 27 36 38 44 48 48 44 39 40 41 38 35 32 30 22 22 22 18 18 18
23 21 19 17 17 17 18 24 26 30 25 23 29 35 34 36 43 50 48 37 40 40 37 36 34 28 25 24 19 18 16 16
24 24 22 21 19 18 19 23 26 29 29 30 29 32 38 37 41 41 47 41 41 39 38 35 32 28 29 22 20 22 18 17
26 27 25 22 21 20 21 23 24 29 30 29 31 25 36 37 38 41 47 45 39 39 40 38 34 32 29 24 27 27 22 20
22 23 24 23 22 22 23 23 25 27 28 29 29 29 33 36 42 43 42 50 50 45 42 38 34 36 31 28 27 26 29 27
23 27 29 28 28 27 26 25 26 28 29 28 30 30 32 35 33 39 45 42 51 54 49 42 42 44 36 35 33 30 33 28
22 28 30 31 31 31 30 29 28 30 30 30 30 29 30 28 32 38 45 43 45 58 55 49 52 45 43 40 38 38 31 29
21 26 30 31 33 34 33 31 30 31 31 31 31 32 33 33 32 34 40 42 44 48 48 48 46 44 44 38 40 40 36 35
16 22 28 30 30 31 32 32 32 31 32 32 33 35 37 36 36 38 42 41 38 38 46 47 46 41 37 37 39 37 34 35
10 17 24 28 29 30 32 33 33 35 35 34 34 35 37 39 43 44 44 42 42 44 48 45 41 42 41 38 38 37 36 37
4 13 19 24 29 31 33 33 34 35 36 37 37 36 37 40 44 46 47 51 46 45 43 42 44 46 47 42 40 39 40 36
6 9 17 21 26 29 31 34 35 34 35 38 39 39 41 43 45 46 43 43 41 40 41 44 47 53 58 57 52 46 35 37
15 9 14 19 22 26 29 32 34 34 34 37 40 43 44 44 44 44 46 45 43 45 48 50 49 50 50 42 44 43 45 49
16 15 13 13 18 22 26 28 31 33 34 35 38 40 41 41 41 41 42 43 44 42 42 44 43 44 44 42 42 46 44 44
18 15 16 18 17 19 23 27 30 31 33 31 30 32 33 37 39 40 37 38 38 36 37 37 37 42 39 40 44 36 35 33
25 23 19 18 19 24 25 25 26 30 32 30 31 31 32 32 32 32 34 35 34 36 34 33 35 35 39 35 32 31 33 34
26 23 20 20 19 19 24 23 26 30 31 32 32 32 31 29 28 29 29 29 30 32 34 34 36 39 36 33 34 33 36 36

GFSFLT1_850_spd_075.txt.gz
Wind_Speed
16 13 11 11 12 11 12 14 12 14 20 25 29 27 30 35 38 39 37 34 36 31 29 26 27 24 22 19 18 17 15 16
17 16 14 13 13 14 15 18 15 20 21 29 27 33 34 36 40 40 40 33 33 30 27 29 29 23 23 22 19 18 15 16
19 18 17 16 16 15 17 22 18 18 25 24 24 29 36 34 39 35 37 39 35 35 29 30 30 26 24 22 21 19 17 19
23 22 21 17 18 17 18 22 21 21 23 27 27 29 34 36 40 40 44 40 34 31 28 27 33 30 28 27 25 23 21 24
23 24 23 21 19 18 18 20 24 26 27 28 30 34 36 42 46 46 45 44 43 35 37 35 33 33 31 28 25 23 22 18
24 25 24 22 20 21 20 23 25 31 27 28 30 31 34 36 38 51 45 47 43 41 40 37 35 35 33 30 27 28 24 21
22 24 24 24 22 22 23 23 26 29 36 32 29 25 29 36 38 39 55 55 47 38 41 38 41 42 39 34 32 29 24 23
21 25 29 27 27 25 24 25 25 30 32 35 35 33 30 32 38 38 43 57 57 56 44 45 46 47 42 39 38 33 30 35
20 25 28 30 30 28 26 26 26 28 31 33 34 33 34 31 33 39 40 49 53 58 52 49 47 49 44 43 41 38 32 33
15 23 28 30 31 31 30 28 27 28 29 28 29 32 31 31 31 35 35 44 51 59 55 54 49 55 51 47 43 42 37 39
8 20 26 29 30 30 30 30 29 28 29 29 29 29 31 31 32 35 40 39 48 57 57 58 62 57 52 49 48 51 51 44
2 13 20 25 28 30 31 30 31 31 32 30 29 31 31 33 33 35 35 35 39 43 48 51 62 62 58 53 52 48 49 44
1 5 15 23 28 30 33 31 32 34 35 35 34 32 32 35 38 38 38 41 39 45 42 47 51 54 58 54 51 51 48 42
9 3 9 17 24 29 32 32 34 34 34 36 39 39 39 41 42 42 40 39 41 40 41 39 41 46 46 49 49 47 44 44
19 15 8 13 19 25 30 33 34 34 34 35 37 43 44 43 40 39 40 42 42 43 43 43 45 43 44 45 44 45 45 44
19 18 14 11 15 21 25 29 32 34 35 37 41 43 42 37 39 40 40 43 44 45 45 46 47 47 48 48 47 48 47 48
20 19 21 14 14 17 22 26 33 34 37 43 38 35 38 40 41 42 41 42 45 42 45 46 47 48 49 51 51 52 53 50
20 22 21 19 14 13 19 24 24 32 37 38 36 36 38 41 40 38 42 44 42 45 46 45 45 44 46 47 48 46 43 41
23 23 22 22 21 19 17 20 25 31 35 36 35 36 37 35 37 39 41 40 42 43 44 43 41 40 40 42 41 36 36 42

GFSFLT1_850_spd_078.txt.gz
Wind_Speed
16 15 14 14 14 14 10 13 15 14 14 15 13 14 23 30 31 32 38 37 38 36 35 30 31 33 29 22 24 23 22 20
18 17 16 16 16 15 14 14 16 15 19 17 20 22 25 32 35 36 38 38 33 33 32 35 32 30 30 26 25 23 20 22
22 21 19 20 19 16 13 15 17 17 20 22 22 24 25 38 38 36 42 40 37 39 33 36 36 32 31 27 24 24 22 25
27 24 23 22 22 20 20 18 20 20 24 23 25 25 28 35 39 37 43 41 36 37 30 34 33 29 29 29 29 29 28 28
29 28 25 24 23 21 16 15 23 22 24 28 26 32 36 34 39 43 45 42 38 39 35 37 37 33 35 34 34 32 28 27
28 30 27 25 23 24 22 20 25 25 25 30 32 33 33 37 37 47 46 45 40 41 37 39 32 37 37 38 36 34 28 25
24 27 26 26 26 25 22 22 23 30 31 32 31 33 33 35 41 47 47 45 46 39 37 38 36 36 38 36 35 32 29 25
23 26 28 28 30 29 27 26 26 29 33 33 33 32 33 34 38 43 49 50 52 48 43 47 43 38 36 37 36 32 30 28
20 25 28 30 32 32 29 30 26 29 33 36 31 31 31 34 36 42 44 54 58 55 52 49 53 46 39 42 40 39 34 33
18 22 31 32 34 35 32 32 26 29 31 36 38 35 34 34 32 36 43 44 51 61 60 56 55 50 45 45 45 45 44 42
11 21 28 33 33 34 33 30 30 31 31 28 36 40 40 41 32 34 36 37 43 50 64 62 60 56 51 48 50 50 50 49
4 3 17 29 29 33 35 33 31 33 34 32 29 34 36 41 42 41 39 39 41 42 53 63 63 62 56 51 53 54 57 56
8 4 7 23 27 30 34 35 34 34 35 35 33 30 31 33 39 39 38 39 42 41 40 47 53 56 62 60 56 54 56 57
9 17 5 11 22 27 30 33 34 35 34 36 37 37 38 38 38 38 37 38 39 40 41 48 50 51 59 62 62 61 58 53
15 16 21 6 16 21 26 30 33 33 34 36 40 43 43 41 40 40 38 38 40 39 40 41 42 44 47 54 55 53 53 58
24 26 25 23 22 16 22 27 30 34 33 37 42 42 42 41 42 42 42 43 42 42 44 45 46 47 48 49 51 53 54 54
22 23 25 26 28 26 15 21 27 30 35 38 40 39 41 42 43 42 42 45 46 47 47 47 47 50 49 47 48 48 47 46
18 20 22 25 23 23 27 23 18 28 34 39 40 40 41 44 44 43 46 47 45 49 49 49 51 51 51 51 51 50 46 46
14 18 21 20 19 21 21 17 22 20 33 37 39 40 43 42 41 45 46 46 46 47 49 48 48 50 48 48 47 46 48 50

GFSFLT1_850_spd_084.txt.gz
Wind_Speed
35 31 27 23 21 18 15 14 19 17 15 17 12 13 16 19 29 36 44 43 39 38 37 35 37 39 38 38 39 37 34 28
36 33 29 26 24 21 19 16 21 21 20 21 19 15 16 24 33 37 48 44 40 39 39 37 38 41 37 36 33 30 27 28
40 37 32 29 26 24 20 17 20 24 23 21 22 17 17 24 29 32 44 39 39 39 37 38 38 42 37 36 32 31 29 31
44 41 36 32 30 26 22 19 18 26 24 23 22 18 19 22 29 30 42 40 40 42 38 39 39 41 36 35 34 33 34 34
48 45 39 36 33 27 23 20 17 22 28 26 28 27 28 26 29 36 38 38 37 37 38 37 40 39 38 35 35 35 35 37
47 49 44 39 35 30 26 21 18 21 27 29 27 28 28 22 26 34 36 37 38 39 39 41 39 40 40 38 39 38 38 38
50 52 47 42 36 31 27 24 20 23 26 29 31 30 29 29 31 33 37 40 42 40 37 39 37 38 42 38 39 36 38 39
44 49 49 44 40 34 29 27 24 24 27 31 32 31 30 30 32 39 40 44 46 45 43 44 40 38 36 39 40 43 42 39
49 54 52 46 41 36 31 29 26 25 26 31 33 34 33 29 31 34 42 42 43 45 47 45 42 38 38 38 42 43 41 40
47 50 50 45 41 35 32 29 27 25 25 29 34 35 34 34 32 34 34 40 44 47 47 48 46 44 42 42 44 44 42 40
43 45 46 42 38 35 33 28 25 24 24 26 30 34 37 36 34 35 37 34 36 43 48 49 48 46 45 43 43 43 44 42
25 38 42 40 37 35 33 30 27 26 25 25 28 33 36 38 37 36 36 36 36 39 45 51 53 50 48 49 48 47 46 45
16 24 19 23 29 32 32 30 28 26 23 24 26 28 33 35 37 36 34 36 36 37 40 48 56 55 54 54 55 55 54 53
41 28 21 12 7 19 24 26 29 28 24 23 25 29 29 32 35 37 37 37 38 38 39 42 47 53 58 59 60 59 56 57
39 35 34 30 18 11 7 12 22 26 29 29 26 27 29 31 31 34 35 39 41 42 42 43 44 46 49 54 58 62 65 66
35 32 29 28 24 19 15 7 3 15 27 32 33 31 29 30 33 33 34 36 38 40 42 44 45 47 47 48 51 56 58 59
31 25 27 26 22 21 17 14 14 8 13 24 31 32 36 38 37 36 37 37 39 41 43 45 47 48 49 49 48 50 52 54
25 24 24 24 22 18 16 17 13 6 9 1 15 24 22 28 37 40 41 43 43 44 44 44 48 49 48 48 48 49 50 52
21 18 20 21 19 19 19 17 14 13 10 6 4 5 11 19 27 34 42 47 48 48 49 48 48 49 48 47 47 47 49 51

GFSFLT1_850_spd_087.txt.gz
Wind_Speed
35 41 35 31 29 26 21 19 17 17 15 16 17 19 20 22 25 35 32 32 39 35 33 33 35 38 41 45 44 38 34 28
32 43 38 34 31 29 24 22 19 19 19 18 18 18 17 19 24 31 37 36 38 40 33 32 34 39 41 43 43 40 32 27
34 41 40 37 34 31 27 24 20 18 18 19 21 18 17 18 21 25 38 41 40 41 37 37 37 39 41 43 46 42 34 29
38 42 42 41 38 34 29 25 20 19 18 18 17 19 16 19 21 26 26 37 43 37 37 36 36 39 41 41 44 43 39 32
39 46 46 44 40 35 29 25 21 20 21 23 23 23 23 24 24 27 30 38 42 37 36 38 36 40 39 38 38 39 35 35
44 49 49 47 42 36 31 26 23 21 23 23 23 25 24 22 23 25 22 38 35 36 36 40 42 38 40 35 34 37 34 35
39 49 51 48 43 36 32 28 24 22 25 25 26 27 27 25 24 27 28 32 35 34 37 35 36 37 43 39 36 40 37 36
34 42 48 49 45 40 35 31 28 24 25 27 29 29 28 28 23 24 32 34 36 35 33 38 39 40 43 41 41 41 40 40
28 43 51 55 48 43 38 33 30 26 25 26 27 30 28 27 25 23 27 31 34 36 36 38 38 39 39 40 40 42 44 40
30 42 49 54 50 44 40 34 30 27 26 27 28 31 31 31 29 26 27 31 35 38 38 38 38 38 39 38 42 42 45 37
27 41 46 49 50 43 37 33 29 26 26 26 26 29 31 30 27 29 30 30 34 37 40 41 41 42 42 40 38 37 42 46
18 26 30 37 43 41 39 34 29 26 25 25 26 26 29 30 30 30 28 31 31 35 37 40 43 46 46 46 43 42 45 45
16 16 18 26 31 33 35 31 29 25 23 24 25 24 26 30 34 33 32 31 32 33 33 35 40 46 49 50 50 50 50 50
30 27 21 16 12 13 18 21 25 25 22 22 24 25 27 27 29 32 33 32 33 34 36 38 38 39 44 50 52 52 52 52
33 35 30 25 20 15 12 11 15 18 21 23 24 24 25 26 25 27 29 33 35 35 37 39 40 41 44 46 51 56 58 58
28 32 33 30 27 22 14 7 8 15 16 16 19 19 22 24 26 25 27 30 32 33 35 38 42 43 46 47 49 53 56 59
20 24 31 28 25 23 17 15 13 6 11 14 15 16 18 21 26 30 31 33 35 37 40 41 42 44 45 47 49 49 51 53
21 24 27 24 25 22 17 15 10 9 9 9 10 10 12 17 22 25 26 29 34 40 43 45 46 47 46 47 48 49 50 52
18 19 20 19 20 20 17 16 14 12 10 7 3 1 5 8 11 17 25 27 32 36 38 42 47 50 50 49 47 47 49 51

GFSFLT1_850_spd_090.txt.gz
Wind_Speed
24 23 35 40 36 32 28 26 23 19 19 18 18 17 20 19 18 19 18 20 24 31 35 36 37 38 43 43 41 35 31 28
26 21 26 38 39 35 33 29 25 22 21 20 19 18 20 21 18 23 21 21 26 33 31 34 33 33 44 43 41 37 32 30
25 21 25 34 41 38 35 31 26 22 21 20 17 17 17 15 15 20 25 28 25 35 29 30 29 33 41 41 42 39 33 32
23 22 26 37 43 41 37 32 27 23 19 19 17 18 16 16 18 18 21 33 28 40 35 32 32 34 35 39 44 41 37 35
23 20 27 41 44 42 37 32 27 24 21 20 19 21 24 19 19 21 21 23 31 38 39 42 36 41 35 36 43 41 38 38
25 22 25 38 42 44 39 32 27 24 22 20 19 18 20 20 19 20 18 19 24 34 38 37 34 41 37 37 40 44 38 38
24 24 31 39 43 41 39 34 30 25 23 22 22 19 21 20 20 22 22 22 31 29 38 33 35 38 41 42 37 39 42 37
27 27 32 37 46 45 41 36 33 26 23 23 22 21 21 21 21 23 23 27 29 28 31 31 32 39 42 42 41 38 37 37
23 28 30 35 46 48 43 38 35 28 24 23 23 22 23 24 22 23 23 27 29 34 30 26 28 34 38 40 39 38 39 45
23 28 32 36 45 49 46 41 37 29 24 24 24 22 23 24 23 21 18 22 26 30 31 28 29 32 36 37 43 45 39 41
18 30 31 36 40 42 44 43 36 28 23 22 22 21 22 22 20 20 19 18 21 23 28 30 28 33 35 37 36 40 42 45
12 17 21 27 32 33 39 39 34 27 21 19 18 19 20 22 20 20 20 20 20 23 24 28 30 32 34 36 39 39 42 41
18 12 13 18 24 28 30 31 29 23 17 16 17 17 17 21 22 22 21 20 20 22 24 29 32 35 37 38 39 41 43 44
32 28 22 17 17 20 20 20 22 18 14 14 15 16 16 18 19 22 23 23 23 23 25 26 28 31 34 37 40 42 45 47
30 31 32 27 23 20 19 18 17 15 14 15 16 15 14 14 17 17 20 24 25 28 28 29 30 32 34 35 36 40 45 50
30 32 31 27 26 19 13 10 13 13 9 9 10 10 13 14 17 20 19 18 21 23 27 29 31 34 36 36 38 41 42 44
27 30 31 29 28 22 19 16 13 11 15 14 14 14 11 13 16 19 20 20 20 22 25 29 33 34 35 36 38 41 44 45
25 28 29 31 29 21 18 15 16 10 11 9 10 10 13 15 18 20 22 26 23 26 27 27 32 33 36 39 40 43 45 47
20 21 22 24 18 13 15 19 17 13 13 9 6 4 6 8 11 12 15 19 21 26 28 30 33 34 37 37 36 36 40 43

GFSFLT1_850_spd_093.txt.gz
Wind_Speed
25 22 22 23 31 32 34 32 30 27 24 22 22 21 22 21 21 21 22 28 32 33 37 45 38 41 39 43 39 35 31 29
29 28 26 26 30 33 38 37 33 30 27 25 25 22 22 22 23 19 16 17 25 24 48 38 41 41 40 43 41 36 33 30
28 26 26 27 30 33 39 39 35 32 28 24 23 18 21 21 17 15 18 21 13 22 27 37 35 37 39 43 41 38 35 33
32 27 26 25 28 34 40 39 36 33 28 25 21 18 17 19 19 17 18 17 17 20 28 26 31 32 34 41 41 41 38 34
32 30 28 27 28 33 39 40 36 33 29 26 22 19 22 23 19 19 20 21 27 26 31 26 28 32 34 41 41 39 37 37
26 28 32 29 29 34 40 40 37 34 30 26 21 20 20 20 16 18 22 15 30 28 37 33 30 32 31 36 38 38 38 38
23 25 28 29 28 34 40 39 38 35 31 27 22 19 18 21 20 18 20 20 22 32 37 39 36 36 37 36 34 34 37 41
23 18 26 28 31 37 39 39 38 35 31 28 21 17 16 19 20 21 21 20 24 20 27 41 41 37 36 43 42 43 42 44
25 19 22 30 32 38 41 41 39 36 30 28 22 18 18 18 15 20 21 24 22 19 26 26 39 35 34 38 43 39 41 43
30 19 21 28 33 38 41 42 40 37 30 26 22 20 21 21 18 17 18 20 24 20 23 26 30 29 33 35 42 39 44 42
29 18 22 25 27 30 33 37 39 36 29 25 20 19 19 21 20 20 19 17 21 22 24 26 26 27 29 40 39 42 43 45
23 10 8 16 19 27 28 33 36 34 28 22 21 18 18 21 18 16 16 14 16 21 22 24 23 22 23 26 33 39 40 42
22 13 5 9 16 21 24 30 32 32 26 21 18 16 15 17 17 15 14 14 14 16 19 21 23 25 25 28 32 38 38 41
20 24 23 13 15 16 20 25 25 26 21 17 15 14 13 14 15 16 16 15 14 15 16 19 21 25 28 29 31 34 34 37
22 26 26 23 24 20 21 18 16 15 13 13 11 10 9 10 13 12 15 16 16 18 19 19 20 22 25 27 31 34 36 38
30 29 28 33 22 18 19 20 19 13 13 11 8 8 8 10 13 14 14 13 16 18 21 22 23 24 27 28 29 31 33 34
29 24 37 31 29 26 22 21 21 18 14 13 13 11 11 14 16 16 15 16 20 16 19 21 23 25 27 27 29 32 33 34
24 30 31 31 30 27 27 25 20 16 16 11 12 11 10 12 13 14 14 17 18 19 22 24 22 24 26 29 33 34 35 38
23 26 27 26 24 23 25 23 22 18 13 12 9 8 7 8 9 10 12 13 16 19 20 20 24 25 29 31 32 31 32 34

GFSFLT1_850_spd_096.txt.gz
Wind_Speed
21 20 18 17 18 22 25 28 33 32 29 26 24 25 26 27 25 24 25 26 29 31 31 32 38 39 41 36 39 36 27 23
27 27 24 22 21 22 26 29 34 35 33 30 28 27 26 27 25 23 23 23 28 29 30 35 38 38 41 38 39 33 29 26
27 27 26 22 22 25 26 32 37 38 35 32 29 26 27 24 24 23 24 23 20 24 35 44 44 38 39 45 38 32 33 29
25 27 26 24 23 26 27 32 38 38 34 32 28 21 22 21 22 21 23 17 18 11 27 39 42 45 44 46 40 34 34 30
19 24 25 26 25 22 25 33 38 38 37 32 29 23 20 20 20 20 21 14 15 12 25 44 43 40 44 43 43 36 35 29
17 18 22 23 22 22 23 33 35 38 37 32 27 19 15 15 16 20 21 17 19 16 20 21 24 31 36 37 41 37 34 32
19 18 16 20 22 23 26 34 35 38 37 34 27 21 16 17 20 20 22 21 22 23 25 27 27 30 32 34 37 41 37 34
21 20 17 16 22 25 28 34 36 39 38 34 29 22 19 17 19 22 24 25 22 24 32 34 30 29 30 29 30 37 37 33
23 23 20 16 22 25 30 34 35 38 38 34 29 21 20 17 18 20 21 23 21 22 29 33 37 37 35 34 34 34 39 41
24 26 21 17 21 26 29 30 28 34 34 34 29 25 20 17 18 17 19 21 23 20 18 24 36 39 39 37 34 37 45 42
26 25 23 12 17 22 26 30 30 31 33 31 28 24 23 19 18 20 20 18 20 19 19 20 27 33 41 35 37 35 42 41
25 24 17 3 11 19 24 28 31 31 31 29 26 24 25 22 18 20 19 18 19 19 21 21 22 25 31 31 29 34 39 38
23 25 20 2 9 15 18 22 29 28 28 26 22 21 23 25 23 22 19 20 17 19 18 20 19 23 25 25 27 34 36 29
25 29 25 11 13 12 13 22 22 23 23 22 21 19 20 22 21 18 18 17 16 17 19 20 22 23 24 25 23 24 28 34
28 30 29 17 16 16 20 20 20 22 22 18 21 20 18 20 17 16 18 18 17 18 19 19 20 21 23 24 24 26 30 31
34 30 28 24 19 20 20 19 20 21 22 20 18 15 15 15 15 13 12 15 16 17 18 18 18 18 19 24 27 28 30 32
30 30 29 28 23 22 24 23 19 20 23 23 22 20 17 17 19 19 19 17 16 15 15 15 16 22 27 26 24 24 26 28
24 24 28 23 25 27 30 26 19 19 19 18 18 19 18 15 13 14 15 17 18 20 21 20 21 23 25 25 26 28 29 30
20 22 22 28 29 29 26 24 25 22 22 20 15 13 14 13 12 12 11 13 14 15 16 17 18 22 25 26 26 25 26 27

GFSFLT1_850_spd_099.txt.gz
Wind_Speed
21 24 26 24 22 22 25 26 26 28 32 31 28 27 25 24 22 24 20 25 27 27 25 28 29 32 32 30 29 38 31 27
20 21 22 21 22 21 24 27 28 31 34 37 33 31 28 26 26 20 18 21 24 28 27 32 35 29 34 32 34 36 31 28
25 24 25 27 26 25 26 28 29 35 36 37 31 29 27 21 22 20 20 22 24 25 26 34 37 34 40 36 44 39 32 30
15 17 21 23 25 24 28 28 29 38 34 26 22 18 20 19 22 20 22 26 24 23 22 32 31 39 41 41 46 40 36 34
15 19 23 27 27 27 25 28 29 41 29 27 27 24 22 18 17 16 24 24 23 23 22 29 39 39 42 39 49 43 39 38
12 15 17 21 24 28 25 27 30 43 31 29 29 24 18 14 15 19 21 22 17 17 13 18 34 45 47 38 45 43 36 37
14 15 16 18 21 25 26 27 33 40 33 33 29 25 19 17 16 19 22 20 21 16 13 24 37 39 33 40 44 41 38 33
18 18 18 17 18 24 26 26 32 33 37 33 30 24 21 18 17 21 24 24 22 21 19 20 29 34 33 42 42 39 35 33
21 22 21 18 18 21 26 29 29 29 38 32 28 25 20 17 17 22 22 26 26 24 24 24 23 19 24 30 35 37 38 34
23 23 21 21 18 22 26 30 27 30 36 32 29 25 22 18 19 23 20 23 27 24 26 29 30 27 27 26 28 30 31 34
23 24 24 23 15 19 24 30 22 30 32 33 28 24 22 20 18 19 19 19 22 23 24 25 30 34 34 35 34 34 33 35
21 23 23 20 11 13 19 20 23 27 33 33 29 22 20 20 22 19 19 20 21 23 22 21 28 31 37 36 34 35 34 34
19 22 22 18 14 8 11 16 26 22 29 31 26 23 21 24 22 20 22 20 18 20 22 21 21 23 30 32 38 34 33 37
22 23 27 24 16 9 6 14 22 21 29 26 23 22 22 24 21 20 20 19 19 19 19 23 22 21 22 21 25 36 32 30
30 33 28 31 21 13 9 13 17 21 25 25 20 19 19 23 20 19 16 16 16 16 16 15 18 19 19 19 21 25 25 25
25 32 38 30 27 18 13 14 18 25 26 26 23 19 18 17 21 18 19 21 17 16 17 16 13 15 21 21 20 21 23 22
27 30 33 38 31 27 19 17 17 19 22 26 23 22 21 25 21 23 20 21 22 19 19 19 21 22 22 23 25 27 26 28
24 27 29 32 32 30 28 23 17 19 19 19 20 22 23 24 23 22 23 22 21 20 20 20 21 24 23 24 24 23 23 22
19 22 26 26 27 28 29 28 26 23 24 19 15 14 18 23 24 24 24 22 23 24 23 22 21 22 22 22 25 27 29 32

GFSFLT1_850_spd_102.txt.gz
Wind_Speed
30 31 31 28 26 27 28 30 28 29 30 32 30 25 26 22 25 23 19 22 23 27 28 29 30 28 30 29 28 28 33 31
20 21 28 28 25 25 20 29 31 32 28 36 34 35 32 27 25 22 25 22 19 21 25 26 28 30 30 33 32 33 33 33
14 18 21 22 22 28 21 22 31 29 33 30 36 33 32 28 25 24 24 20 18 21 23 26 26 29 29 35 36 34 35 36
23 16 11 10 16 21 31 30 28 30 36 31 31 27 26 26 24 22 23 23 23 26 22 23 25 28 32 37 37 39 40 40
3 7 12 15 19 19 18 31 27 33 37 36 32 30 32 31 28 24 24 25 27 26 24 23 26 29 39 38 37 35 44 42
6 9 12 16 17 20 23 25 30 33 40 39 30 30 27 24 23 19 23 26 24 24 25 25 27 29 37 35 41 43 46 41
8 11 15 16 19 19 22 24 32 34 41 38 31 33 26 23 21 25 29 23 23 21 20 22 26 33 35 35 40 42 45 40
13 16 20 24 22 25 19 21 31 33 39 36 33 34 29 24 26 29 27 24 22 22 17 18 17 21 34 41 38 39 51 44
16 17 19 22 22 23 26 17 30 34 37 34 33 32 31 26 29 25 26 19 20 19 19 15 14 17 23 34 35 43 39 38
21 20 21 21 21 23 26 25 23 35 35 30 32 30 30 29 24 24 23 20 21 19 20 18 15 19 22 29 31 39 37 33
20 21 24 22 21 20 21 24 30 33 33 24 37 31 30 27 24 27 22 17 21 22 21 24 23 19 24 25 32 34 35 36
20 22 26 22 19 17 10 10 22 22 21 21 36 29 30 26 26 22 20 16 18 21 24 27 29 27 25 27 29 31 26 35
22 23 27 24 20 16 11 5 11 15 15 27 34 22 28 26 22 22 20 18 16 16 21 24 24 31 31 34 33 30 29 34
24 30 35 30 23 19 13 5 9 16 16 22 31 23 24 24 20 19 20 20 18 15 19 21 24 24 30 34 34 31 33 32
23 32 34 37 29 23 17 10 8 12 14 18 27 31 25 22 21 23 19 20 17 16 16 17 20 20 24 28 32 34 36 36
26 30 33 37 41 31 24 16 9 9 17 24 23 22 23 21 21 18 19 18 17 17 17 14 13 21 24 22 24 22 21 26
26 29 31 34 38 40 33 27 18 12 17 21 24 23 22 23 26 19 22 24 25 22 24 27 24 23 22 22 21 20 18 20
24 26 27 29 30 31 34 33 27 23 18 16 18 20 22 21 24 23 25 25 23 23 27 24 23 25 25 23 20 20 22 24
23 22 23 25 24 25 26 25 29 31 31 26 19 14 16 16 17 20 23 24 25 26 22 23 23 23 22 21 20 22 24 25

GFSFLT1_850_spd_105.txt.gz
Wind_Speed
38 38 40 34 32 33 34 37 36 34 29 29 29 26 24 23 22 21 17 20 27 30 32 32 28 30 27 26 25 23 25 29
41 38 34 34 32 32 33 36 38 37 32 33 32 33 29 25 27 23 21 19 20 25 28 32 33 33 32 29 28 26 29 30
43 35 23 33 30 24 31 34 37 37 32 30 29 32 32 28 30 28 26 25 22 21 23 28 29 30 30 32 30 31 34 35
8 10 11 10 7 4 23 31 35 34 31 28 28 32 29 29 33 36 33 28 24 25 24 24 26 26 29 30 36 39 39 41
18 15 12 8 7 2 9 28 33 34 34 33 31 34 34 38 37 34 31 28 29 26 25 25 25 27 29 30 35 39 44 44
22 16 11 8 4 4 2 6 17 32 32 32 31 32 30 31 31 30 27 27 28 30 29 28 27 28 28 30 36 38 50 45
21 18 11 9 8 9 10 11 11 7 36 36 35 34 30 28 29 27 30 30 32 33 30 28 27 27 29 30 34 46 42 45
23 22 19 18 20 20 21 21 18 12 31 38 37 35 32 30 29 27 32 33 32 30 28 27 26 25 27 25 43 33 38 38
24 23 23 23 23 24 27 33 29 14 24 38 36 34 31 30 28 28 29 29 29 27 25 22 20 20 20 25 38 35 34 42
26 27 24 23 21 22 24 27 38 29 24 38 34 31 29 33 29 28 29 27 26 24 24 22 18 15 18 16 32 35 44 40
33 29 25 22 20 21 16 15 27 24 25 36 33 31 31 32 33 33 32 27 23 22 24 22 19 14 16 16 26 31 41 42
30 29 27 25 22 21 15 14 7 13 20 30 32 30 33 31 33 33 29 25 22 24 24 23 19 16 13 16 23 34 36 35
32 32 31 32 30 27 21 13 7 13 17 20 21 21 34 30 31 31 26 22 20 22 25 24 22 21 16 23 25 24 28 31
29 35 38 37 38 34 28 17 6 5 13 14 20 26 27 27 30 26 21 18 16 18 24 26 28 27 25 25 27 29 33 31
29 32 34 37 38 39 36 24 13 3 5 14 16 24 24 23 21 17 18 20 20 18 16 23 23 24 25 32 31 32 32 31
29 32 33 34 36 37 39 34 21 13 8 10 15 18 18 22 19 19 19 19 19 16 14 17 20 24 23 25 28 31 33 32
25 28 30 31 32 32 34 37 32 17 13 11 7 14 19 21 24 24 21 21 18 19 20 21 22 24 25 22 25 24 29 26
25 24 25 27 28 27 30 30 32 29 23 21 16 10 20 24 23 26 27 28 23 24 23 24 25 21 22 21 20 22 23 23
21 20 21 22 23 24 23 25 27 30 30 28 26 21 14 16 17 18 20 26 24 27 24 23 21 24 23 23 24 23 23 24

GFSFLT1_850_spd_108.txt.gz
Wind_Speed
32 31 30 30 35 36 35 32 40 43 38 36 33 30 28 25 25 24 22 23 27 28 27 25 24 26 27 26 26 26 25 23
33 37 37 35 37 38 40 37 38 48 45 41 39 37 34 32 29 27 24 22 26 29 29 28 28 29 30 29 28 27 29 27
40 40 43 41 38 39 42 44 39 46 48 43 40 39 35 31 29 28 26 25 25 27 29 31 33 33 33 32 32 31 30 30
3 7 9 12 9 19 35 41 41 46 48 46 42 38 32 30 30 32 31 29 27 27 27 29 31 34 37 38 38 36 35 33
26 20 17 18 19 15 18 27 34 40 43 45 44 40 38 35 32 32 34 32 30 29 27 27 27 29 33 36 38 39 38 36
23 22 18 18 15 16 15 13 20 26 36 41 41 40 37 33 31 32 33 34 34 33 31 29 28 28 29 32 36 37 39 40
17 16 15 16 15 11 7 8 10 9 25 32 37 38 38 34 30 29 32 32 37 35 33 31 30 30 30 31 35 37 38 42
23 20 17 17 15 14 12 8 9 11 14 32 36 39 39 34 33 29 29 28 34 37 35 35 33 31 31 30 35 36 39 44
30 25 21 19 18 18 19 19 16 19 18 24 40 41 43 41 35 31 28 26 28 32 33 34 29 30 28 33 35 34 33 39
33 27 24 23 20 19 21 23 24 21 22 24 35 42 43 42 36 33 28 24 25 27 28 28 28 28 27 31 32 29 33 40
38 32 27 24 22 20 19 18 20 21 13 24 25 37 38 37 36 32 31 26 23 24 25 26 27 26 24 23 26 29 36 30
36 35 30 26 22 22 23 18 15 9 6 12 15 27 30 30 31 31 33 30 24 24 24 23 25 25 22 24 26 22 28 33
31 35 38 38 31 26 27 22 20 11 3 8 18 17 26 30 32 33 36 33 27 23 23 23 25 23 20 22 23 22 22 32
37 37 37 37 37 33 29 26 24 19 4 6 11 13 15 20 31 35 32 31 25 23 22 23 24 24 21 18 21 20 20 29
34 35 34 34 34 35 33 29 28 22 14 3 7 10 13 19 27 30 31 29 23 18 15 20 24 24 23 22 22 24 22 24
25 30 33 32 33 33 34 33 30 27 23 10 2 4 11 16 22 34 27 23 22 15 14 15 22 25 25 28 26 25 26 26
23 25 27 29 29 31 31 32 31 29 28 24 14 1 5 9 24 31 34 30 25 21 19 18 20 22 22 25 26 28 31 31
25 23 25 25 27 27 28 29 28 29 31 29 25 16 6 5 7 15 30 25 24 25 22 22 23 22 22 21 22 23 27 29
20 18 20 24 23 24 24 23 26 27 29 32 31 28 20 14 6 9 16 24 27 25 28 26 28 26 22 21 23 23 23 26

GFSFLT1_850_spd_111.txt.gz
Wind_Speed
35 28 30 45 44 42 40 33 32 32 34 33 33 32 30 28 28 26 25 26 26 27 27 26 26 28 28 29 27 25 25 24
27 21 30 39 43 43 41 40 38 39 40 39 37 37 35 33 32 29 26 25 25 27 27 27 28 29 30 30 29 28 28 24
6 14 22 31 32 38 41 42 40 40 41 40 42 42 39 36 34 31 28 27 27 27 28 30 30 31 31 31 32 31 31 28
11 11 14 16 16 23 31 37 40 43 45 46 47 43 40 37 34 33 33 31 31 29 28 29 31 33 33 33 33 35 34 32
18 18 19 15 10 10 19 24 30 36 39 42 45 47 45 43 40 37 34 35 34 31 30 29 30 33 36 35 35 36 36 35
23 20 18 22 16 12 14 18 21 25 30 34 38 44 42 40 40 36 33 31 33 34 34 32 30 32 33 35 37 37 38 39
23 18 16 20 15 13 14 15 17 21 28 32 34 37 38 37 35 36 33 32 32 33 36 36 33 32 32 33 33 35 36 39
24 22 20 18 14 11 9 8 9 10 16 26 32 36 38 36 37 37 35 34 34 32 35 37 36 35 32 31 32 33 35 36
23 24 22 22 17 12 8 5 1 5 10 13 25 35 39 40 42 42 41 36 33 31 33 35 35 35 33 32 33 33 32 35
29 27 26 25 22 18 14 9 8 9 12 17 22 24 35 40 41 42 40 38 34 32 28 28 33 34 34 35 34 32 31 36
31 37 34 30 25 21 17 14 12 9 11 15 25 31 32 37 41 43 42 39 35 32 28 27 30 32 34 34 32 32 30 34
39 38 37 35 30 26 20 19 17 9 7 6 12 22 26 26 35 38 36 36 34 32 26 26 28 29 32 33 29 28 25 24
37 37 35 38 36 32 27 22 20 17 11 5 3 10 14 22 26 30 29 32 32 31 29 26 27 27 30 27 27 23 24 24
33 33 37 37 35 36 34 30 25 21 17 11 7 5 11 15 14 23 27 29 31 33 32 29 28 26 26 26 23 21 22 23
30 34 34 33 34 34 35 34 30 24 20 16 12 8 5 10 18 19 21 28 32 33 34 31 26 24 24 23 21 19 18 18
28 32 32 33 32 33 33 33 35 32 24 19 16 14 9 8 13 17 22 28 29 32 31 25 20 20 22 23 21 18 19 19
21 26 28 31 32 32 30 31 33 34 34 28 23 20 17 11 8 8 20 29 29 34 25 25 20 22 25 24 24 23 21 22
26 26 26 26 29 28 29 29 29 31 34 35 31 26 23 20 15 8 11 12 23 24 29 24 20 20 21 23 22 24 25 27
21 22 22 23 22 26 22 24 26 28 30 30 31 32 30 27 23 17 13 6 4 8 16 19 23 23 21 22 23 23 25 25

GFSFLT1_850_spd_114.txt.gz
Wind_Speed
37 38 32 33 42 54 50 43 38 36 36 33 33 31 30 29 27 28 26 26 26 26 26 25 25 26 27 27 27 26 25 24
32 37 35 32 43 48 51 48 43 42 41 38 36 36 33 32 30 30 29 27 27 27 27 27 27 28 28 27 26 27 27 25
21 19 22 24 32 44 46 49 47 45 43 41 39 38 36 34 33 33 31 28 27 28 28 28 28 29 30 30 30 30 30 29
8 8 12 19 21 27 39 44 43 42 44 42 42 38 36 37 37 33 32 32 30 28 28 28 29 30 31 30 30 33 33 32
10 12 10 11 14 19 24 36 37 33 36 40 42 42 42 41 40 37 35 35 30 29 30 29 30 32 34 32 30 30 30 32
14 15 13 13 13 15 17 24 30 32 30 33 36 38 40 39 38 39 36 31 31 30 31 32 31 32 35 33 32 32 33 33
15 14 15 17 14 15 16 17 25 25 26 29 31 33 35 38 38 35 34 32 31 32 33 34 34 33 33 33 34 34 34 34
18 16 17 18 17 16 12 13 18 21 23 29 30 31 32 33 36 35 27 37 37 36 33 34 33 35 35 34 34 34 34 35
18 19 21 20 18 16 13 10 10 11 16 23 29 30 33 33 34 36 37 35 35 33 32 31 32 31 33 37 36 36 33 33
20 22 24 23 23 20 16 11 9 6 7 12 17 26 32 32 35 37 38 38 35 35 32 30 32 32 32 35 36 35 34 33
22 31 30 27 25 22 18 15 11 8 3 3 8 16 23 29 34 38 38 38 37 37 35 32 31 32 32 34 36 37 35 33
29 36 37 34 29 25 21 19 15 11 7 5 6 11 16 23 29 32 35 38 41 39 36 33 31 31 30 34 35 35 35 34
39 40 39 39 36 31 29 24 21 17 14 8 6 4 8 11 18 22 24 29 33 34 32 31 31 31 30 33 34 34 35 33
33 40 40 36 37 38 37 31 26 21 15 11 8 6 0 7 14 17 24 22 25 27 27 28 30 33 31 30 32 33 32 29
49 45 38 39 37 35 38 35 31 26 22 18 15 11 10 4 4 12 16 18 16 19 23 27 30 34 32 31 30 28 27 24
35 35 36 35 33 31 30 33 34 33 28 24 22 17 14 10 6 6 8 13 17 20 22 27 28 34 34 30 28 26 23 21
32 30 30 30 30 27 27 30 32 32 35 33 28 25 21 17 14 11 7 9 14 22 23 27 30 32 29 22 25 26 21 20
26 28 29 29 31 28 28 28 27 29 30 31 33 32 31 28 21 19 16 8 5 6 8 22 24 20 24 23 26 24 22 22
23 25 27 26 29 29 25 23 25 28 28 28 29 30 31 31 29 27 23 19 15 12 8 5 4 8 14 21 27 22 22 23

GFSFLT1_850_spd_117.txt.gz
Wind_Speed
34 32 38 38 33 36 38 37 49 49 46 41 37 36 35 34 31 30 28 26 25 26 26 25 24 24 24 26 27 26 25 24
33 34 38 37 33 34 35 40 47 50 49 45 41 40 38 36 34 32 30 28 26 26 27 27 26 26 25 25 27 27 26 25
30 31 32 33 30 31 30 36 41 50 48 47 42 35 36 36 36 35 33 30 28 27 27 28 28 27 27 28 29 29 27 27
11 13 17 20 21 28 35 36 39 45 47 43 37 34 36 37 38 37 35 32 31 30 29 28 28 29 30 31 30 31 28 28
4 1 1 7 11 19 33 35 32 36 42 39 38 37 37 36 38 38 38 35 33 32 29 28 28 30 31 32 31 31 31 31
12 10 8 8 9 12 17 30 31 32 32 36 37 36 37 36 36 37 39 37 36 32 31 30 30 30 32 33 32 32 31 30
13 13 11 12 12 13 14 17 25 27 31 29 31 33 36 36 38 37 35 37 38 35 32 32 30 30 32 33 32 33 33 32
20 20 19 17 16 15 13 15 16 19 25 27 29 31 32 33 37 37 37 35 37 38 35 34 32 30 31 32 31 34 35 37
22 22 22 21 20 15 12 13 12 11 16 20 25 27 31 32 32 35 35 35 35 40 42 36 34 32 30 31 29 32 35 34
26 24 23 23 22 22 15 13 11 8 8 14 19 27 29 31 32 31 32 35 36 36 34 33 32 32 32 32 31 32 35 37
29 29 26 25 24 22 20 18 13 9 6 7 12 17 24 29 31 29 26 31 33 34 33 31 33 33 33 33 34 33 34 36
29 28 29 28 28 26 23 21 17 13 9 7 2 4 8 14 18 25 31 24 31 34 33 32 33 34 33 33 36 35 36 35
30 28 29 36 37 33 30 24 20 17 13 10 7 4 1 5 8 13 21 24 19 21 24 28 34 32 33 33 34 37 36 37
33 32 31 40 37 38 35 32 27 22 17 14 11 9 4 3 5 7 12 16 20 20 20 22 25 28 31 31 32 36 34 35
32 33 41 38 37 38 34 36 33 28 23 20 18 16 13 10 5 4 6 7 13 19 20 18 15 18 22 27 30 34 35 34
35 40 38 35 36 34 33 35 32 33 32 28 26 21 18 15 10 8 5 1 7 8 11 16 17 19 22 26 29 35 41 35
27 26 31 36 33 32 32 31 31 29 32 34 31 29 25 22 19 16 10 9 6 6 7 10 13 18 23 26 29 28 28 28
26 28 29 34 36 32 30 29 30 30 30 30 31 32 31 30 25 21 20 18 13 10 7 5 8 13 19 26 28 28 23 25
23 24 25 26 29 33 31 30 30 28 28 29 28 29 30 29 29 28 26 24 22 19 17 15 13 12 11 12 20 27 20 23

GFSFLT1_850_spd_120.txt.gz
Wind_Speed
35 39 36 32 34 31 28 28 34 34 38 47 38 32 35 27 25 27 33 32 31 30 29 28 28 28 27 28 27 20 18 16
34 38 35 32 33 32 30 29 35 34 36 36 34 32 33 30 27 26 30 33 32 31 30 30 29 29 28 27 28 28 23 18
29 29 34 24 26 27 27 27 34 35 36 38 36 36 32 29 26 26 30 33 34 33 32 32 31 29 29 28 28 29 28 28
23 18 18 17 19 20 20 24 34 36 36 37 32 28 24 26 28 30 36 35 35 34 34 33 31 30 31 30 30 31 32 31
16 14 15 14 14 18 15 21 35 36 40 39 43 40 39 35 33 33 37 35 33 34 35 34 32 31 32 32 31 31 31 32
18 16 14 15 9 7 11 12 34 37 39 43 48 33 28 22 24 29 34 34 36 35 36 36 34 34 33 33 32 32 33 31
22 18 14 15 10 2 6 3 26 35 39 39 37 40 25 22 25 26 28 30 35 38 37 35 36 35 34 34 33 32 33 32
29 27 24 20 17 12 11 7 13 24 30 27 36 27 31 25 23 22 24 31 32 36 41 40 39 38 36 34 33 32 32 33
34 30 27 22 20 18 16 15 11 11 12 15 26 31 34 29 27 21 21 31 32 32 35 43 43 40 38 36 33 30 29 30
37 33 30 27 24 23 20 16 14 11 10 10 15 17 21 26 26 29 31 28 30 30 33 33 42 38 40 38 37 33 31 28
40 36 31 29 26 27 25 18 20 17 13 9 9 10 14 19 22 25 23 28 26 28 30 32 31 33 34 39 41 34 32 32
37 36 33 29 30 27 27 29 27 24 19 15 9 6 6 9 16 20 26 26 27 23 23 24 26 27 29 33 35 29 35 38
36 38 37 37 38 38 32 31 30 25 22 20 17 11 7 2 2 7 12 20 23 20 13 16 21 22 27 29 33 36 39 37
38 40 41 39 39 38 37 34 30 26 23 20 17 15 11 8 4 1 2 6 12 18 14 16 14 15 23 28 33 35 37 37
33 37 39 38 37 35 36 35 33 29 27 25 23 20 16 13 10 7 4 2 5 11 15 19 18 20 22 26 29 31 32 34
29 32 34 38 37 37 35 34 34 34 33 32 32 27 22 19 15 12 9 6 5 2 3 8 14 22 25 26 26 26 28 30
27 27 30 35 35 32 32 33 33 31 31 33 32 30 28 26 24 21 17 15 13 8 6 4 6 10 16 21 24 23 26 29
23 23 25 28 29 33 33 30 28 27 29 31 31 30 30 31 28 26 26 24 20 18 16 14 11 9 9 14 19 20 22 25
21 22 23 25 26 27 28 29 32 32 31 29 27 28 28 27 27 28 28 27 26 24 22 20 18 16 12 9 7 4 9 16

GFSFLT1_850_spd_123.txt.gz
Wind_Speed
32 32 34 34 33 32 32 34 33 34 38 35 34 33 31 27 28 27 35 38 37 35 34 30 31 29 28 24 22 20 18 19
30 31 31 31 31 33 35 35 32 30 30 37 38 38 34 33 30 30 32 37 39 38 36 34 32 31 29 28 28 23 21 19
31 30 28 27 25 23 23 27 27 32 36 42 40 38 36 36 34 34 31 33 38 40 38 36 34 33 31 29 29 28 23 22
30 29 27 28 27 20 21 26 28 34 33 40 40 37 36 37 36 35 36 33 35 39 38 36 34 34 33 33 31 31 27 27
28 27 28 26 26 27 32 28 28 36 41 32 46 44 43 40 37 36 34 35 35 37 39 37 35 33 33 34 32 32 31 32
29 28 28 26 25 28 27 26 24 37 46 37 45 48 41 39 37 35 35 35 31 33 38 38 35 33 32 34 34 34 32 32
26 26 26 26 23 22 18 12 22 33 36 38 42 48 40 37 36 34 35 33 32 29 31 36 35 32 33 35 35 33 33 32
27 30 30 29 26 20 12 9 10 21 13 31 34 41 41 38 35 32 34 32 28 30 27 27 33 32 32 33 34 35 33 34
29 30 29 28 27 20 14 10 2 13 8 13 23 37 40 33 33 5 23 20 19 23 26 27 29 29 31 32 32 33 33 31
33 34 30 29 28 23 19 15 15 15 14 14 16 21 20 23 26 29 16 13 14 16 17 18 27 32 30 33 34 29 26 27
36 38 37 32 30 31 25 22 28 23 18 18 15 15 14 25 28 26 20 22 20 16 18 17 20 22 29 33 38 31 31 38
36 40 39 35 34 38 37 31 35 34 29 23 21 20 16 17 17 22 23 20 20 22 15 13 15 19 23 27 31 31 34 35
33 37 40 42 42 44 43 40 39 37 30 29 27 21 11 16 7 11 11 11 15 17 14 13 11 13 14 20 24 26 29 32
34 39 41 46 42 42 41 40 37 32 31 28 27 28 26 22 17 13 10 5 5 6 8 16 15 12 14 19 21 22 27 30
33 36 39 41 43 43 40 40 40 33 27 29 32 33 30 28 22 19 16 13 9 4 5 10 10 11 16 20 21 21 24 27
30 32 35 38 39 40 38 37 35 31 34 36 40 38 35 31 25 24 22 19 17 13 8 4 2 8 14 18 20 20 25 28
25 27 31 37 35 34 33 35 34 31 34 37 37 38 35 34 32 30 25 21 20 17 16 14 10 9 9 13 15 18 21 25
22 24 26 28 30 31 32 32 34 35 35 35 36 36 34 33 28 28 29 27 23 21 20 18 18 15 13 10 11 11 14 16
19 24 26 28 25 26 29 33 35 36 37 36 32 29 27 26 27 29 29 26 26 25 24 23 21 19 16 14 12 11 11 10

GFSFLT1_850_spd_126.txt.gz
Wind_Speed
32 36 36 35 28 25 28 24 28 28 33 31 36 40 41 38 42 38 38 38 37 41 37 26 29 29 29 30 28 24 23 21
28 33 35 35 31 30 27 22 21 26 36 29 32 41 41 40 40 41 39 41 41 39 41 34 35 27 29 33 29 26 25 20
30 32 35 35 35 34 32 26 22 21 22 25 23 33 43 47 39 40 38 37 42 43 42 42 40 41 34 31 32 28 25 25
33 34 33 35 37 36 37 36 31 27 25 28 31 28 38 46 42 41 42 43 37 41 44 44 40 37 35 33 33 30 31 28
34 35 34 34 35 36 37 37 36 36 35 30 34 38 34 46 44 42 42 46 43 39 43 43 42 39 37 35 32 34 29 31
33 34 36 34 31 32 31 36 32 33 38 40 50 50 50 33 46 42 44 45 45 41 38 43 42 41 39 36 35 34 34 31
31 32 34 32 30 29 29 26 27 27 35 40 44 49 58 46 51 46 49 45 44 41 37 43 42 40 38 36 35 34 33 33
32 36 34 32 29 27 23 20 20 20 23 26 32 44 47 51 52 52 50 47 44 39 36 41 41 39 36 35 35 34 34 33
35 37 36 30 29 28 23 22 17 11 10 13 24 29 25 32 55 18 50 45 37 31 28 26 36 35 33 33 34 35 34 34
35 37 36 34 34 35 30 24 20 11 4 3 14 16 15 18 7 3 32 39 37 35 24 23 19 22 25 28 31 33 33 31
35 38 39 36 34 34 32 27 22 17 13 10 12 10 9 15 17 10 3 12 19 20 23 15 16 19 21 24 28 31 30 27
34 37 40 39 35 38 35 31 26 27 24 27 32 24 9 7 10 17 12 9 14 14 7 9 10 12 14 21 25 30 27 34
31 35 38 39 39 38 37 37 38 31 40 38 36 34 31 26 20 17 14 20 14 6 4 10 11 11 13 16 21 27 29 31
32 37 40 41 41 41 40 41 39 46 48 45 39 38 38 31 26 17 11 8 4 10 11 9 10 12 15 17 18 23 24 23
30 35 38 40 42 44 45 41 43 47 45 46 41 41 38 33 31 29 24 18 13 9 8 1 3 8 12 13 14 15 16 20
29 33 36 37 40 41 45 42 43 44 46 45 43 35 37 36 37 32 25 23 20 17 11 5 3 4 4 5 9 11 14 17
25 28 32 32 33 36 37 40 41 39 41 40 37 39 32 33 34 35 30 30 28 22 21 19 16 15 14 9 8 7 9 10
22 27 27 30 30 36 37 32 39 40 40 42 41 37 32 34 34 33 34 35 30 28 26 25 24 22 20 16 14 12 12 12
18 22 25 27 26 29 36 38 38 41 44 40 37 34 34 31 30 33 32 30 29 29 29 28 27 26 22 21 18 16 14 14

GFSFLT1_850_spd_129.txt.gz
Wind_Speed
29 33 37 37 35 38 40 37 36 31 27 26 28 23 30 35 38 40 45 42 37 41 39 35 34 32 29 28 29 26 25 24
32 35 40 39 40 38 38 42 31 33 31 26 30 29 22 29 36 42 46 46 44 42 43 38 35 34 33 30 28 30 31 27
34 36 36 44 44 45 43 40 36 31 33 32 27 24 27 24 29 40 46 49 46 49 49 46 42 38 38 36 35 35 31 28
34 39 45 46 44 43 43 44 41 33 32 36 35 31 30 33 32 32 43 47 47 49 51 49 48 41 41 41 39 37 35 31
37 45 48 46 43 42 42 41 40 36 31 33 37 36 37 39 37 33 32 46 47 46 52 52 54 45 43 41 37 38 37 35
39 41 41 41 40 40 40 39 38 35 34 31 32 38 42 40 42 41 42 40 48 49 48 58 56 56 49 44 41 39 40 37
33 36 37 37 36 34 35 34 34 31 29 31 33 39 44 41 44 47 49 45 38 54 53 55 53 53 50 49 40 39 40 39
33 37 37 37 38 36 33 32 29 24 22 25 28 29 33 38 46 51 50 44 48 64 60 57 55 52 50 45 41 38 38 38
31 35 36 37 39 34 31 30 30 22 17 19 19 23 28 30 34 35 34 35 39 48 63 59 51 48 48 43 42 38 35 36
31 34 36 39 37 35 34 36 32 24 16 10 10 12 19 20 23 27 33 28 27 23 58 53 44 43 45 40 36 34 34 33
33 35 37 38 37 35 30 33 35 31 18 11 6 5 18 14 23 30 24 19 39 11 45 39 33 34 32 30 32 30 30 32
33 35 38 39 39 38 35 35 38 33 29 23 20 16 19 21 11 7 11 5 10 23 20 35 33 32 35 32 27 22 20 24
31 34 38 40 41 40 36 35 39 38 28 30 26 30 35 29 19 20 25 21 21 8 12 20 17 21 28 25 22 15 24 27
31 36 38 39 40 41 37 36 38 37 37 35 31 45 41 40 38 32 20 10 14 23 3 7 8 9 12 12 16 16 15 15
31 34 36 38 39 42 42 39 40 40 40 44 53 53 48 45 46 42 38 30 28 19 15 10 10 13 14 9 6 4 5 8
30 33 33 35 39 40 42 42 41 42 44 48 48 49 50 49 45 45 40 40 36 33 29 25 15 13 12 10 6 1 1 2
26 28 32 31 37 39 40 41 43 43 44 45 44 45 46 48 46 44 42 39 35 33 34 32 30 28 22 17 13 10 9 6
21 24 26 28 31 35 37 40 39 42 44 41 41 41 42 44 45 41 39 37 34 36 37 36 35 32 28 25 20 17 15 15
17 20 22 25 25 30 33 35 39 39 41 42 41 41 42 41 39 39 36 34 34 35 34 33 30 31 27 26 24 22 20 19

GFSFLT1_850_spd_132.txt.gz
Wind_Speed
31 33 35 37 39 39 38 41 44 41 40 41 44 37 32 26 30 33 34 40 42 40 38 42 41 38 37 34 31 31 29 27
32 36 38 39 40 40 40 41 42 44 37 38 42 43 39 32 31 34 34 36 42 43 44 42 44 42 39 38 35 34 32 29
36 39 40 42 44 43 43 42 41 40 34 31 36 39 41 40 30 36 34 38 35 42 45 46 46 45 42 42 40 38 36 33
38 41 42 43 43 44 43 41 41 39 34 32 32 34 41 38 36 33 33 32 40 35 49 49 47 46 46 45 43 41 41 38
37 40 44 44 42 39 39 39 39 38 33 34 30 33 37 37 39 37 39 32 35 41 38 48 51 49 50 47 44 42 42 42
38 40 41 40 38 37 37 36 36 35 33 30 30 32 32 34 39 41 38 40 32 39 45 39 55 54 55 50 49 46 47 43
35 35 37 38 37 36 36 35 35 36 33 31 27 28 31 33 37 41 40 40 43 36 40 43 53 51 57 57 52 50 49 46
35 36 38 37 38 37 37 36 35 34 30 26 23 24 26 28 27 35 38 39 41 37 35 35 46 31 54 55 53 49 48 48
31 33 35 35 36 36 36 33 35 32 27 23 21 20 23 26 24 27 32 32 34 25 29 32 31 39 55 54 55 51 50 48
30 32 33 35 36 37 35 35 33 32 29 21 18 17 16 19 20 19 24 21 20 22 23 31 41 33 50 54 52 49 51 44
28 31 33 34 35 36 33 34 34 34 31 26 17 15 11 9 17 19 14 19 22 22 20 23 18 38 55 54 50 48 42 45
27 29 31 35 36 37 36 37 36 39 38 32 29 20 4 3 9 19 16 19 15 9 4 14 20 20 37 48 46 41 41 39
24 27 31 36 38 40 39 38 38 39 40 34 33 31 24 19 21 26 26 25 23 22 18 25 9 21 23 45 38 39 41 39
23 27 30 34 38 40 40 38 37 37 41 39 38 37 33 32 35 33 36 33 31 29 24 20 8 15 17 26 30 23 32 30
22 25 29 32 34 36 40 39 38 37 37 40 40 41 40 39 42 45 41 36 32 36 35 29 28 20 19 25 17 12 18 18
19 23 25 29 32 34 36 39 39 39 38 38 41 42 44 44 50 52 49 45 43 41 31 25 31 26 25 20 16 14 11 17
16 19 21 25 29 31 34 36 39 41 41 41 38 39 41 46 47 48 49 48 45 46 44 41 43 32 28 27 21 18 19 18
13 15 19 20 23 27 30 32 34 39 42 42 43 43 43 44 43 45 46 47 44 42 42 35 30 31 28 28 22 21 21 19
9 9 12 14 16 21 24 28 32 36 40 40 41 41 40 39 40 40 40 43 43 43 39 33 32 31 28 26 24 25 24 23